Regional Weather Roundup
Issued by NWS Mt. Holly, NJ

Home | Current Version | Previous Version | Text Only | Print | Product List | Glossary On
Versions: 1 2 3 4 5 6 7 8 9 10 11 12 13 14 15 16 17 18 19 20 21 22 23 24 25 26 27 28 29 30 31 32 33 34 35 36 37 38 39 40 41 42 43 44 45 46 47 48 49 50
000
ASUS41 KPHI 280412
RWRPHI

REGIONAL WEATHER ROUNDUP
NATIONAL WEATHER SERVICE MOUNT HOLLY NJ
1200 AM EDT WED JUN 28 2017

NOTE:  "FAIR" INDICATES FEW OR NO CLOUDS BELOW 12,000 FEET WITH NO
SIGNIFICANT WEATHER AND/OR OBSTRUCTIONS TO VISIBILITY.

 * = STATION DOES NOT REPORT PRECIPITATION (E.G. RAIN, SNOW, ETC.)
        OR FOG.

NJZ015>026-280500-
SOUTHERN NEW JERSEY

CITY           SKY/WX    TMP DP  RH WIND       PRES   REMARKS
POMONA         CLEAR     64  53  67 NW6       30.04R
WILDWOOD*      PTCLDY    72  51  47 NW10      30.04R
MILLVILLE      CLOUDY    61  57  87 NW5       30.06R
WRIGHTSTOWN    CLEAR     65  50  57 W5        30.02R
MOUNT HOLLY    CLEAR     68  47  46 VRB7      30.04R
TRENTON        PTCLDY    65  49  56 W3        30.03R

$$
NJZ001>014-280500-
NORTHERN NEW JERSEY

CITY           SKY/WX    TMP DP  RH WIND       PRES   REMARKS
SUSSEX         CLEAR     54  53  97 CALM      30.04R
ANDOVER*         N/A     55  53  93 CALM      30.04R
MORRISTOWN     CLEAR     55  55 100 CALM      30.03R
NEWARK         PTCLDY    66  52  60 W6        30.02R
TETERBORO      CLEAR     65  51  60 W5        30.00R
CALDWELL       CLEAR     62  53  72 CALM      30.03R
SOMERVILLE     CLEAR     58  56  93 NW3       30.02R
ALLAIRE*       MOCLDY    65  56  72 SW6       30.04R
TOMS RIVER*    PTCLDY    58  52  80 W3        30.04R

$$
PAZ043-044-047-054-055-060>062-066>071-280500-
EASTERN PENNSYLVANIA

CITY           SKY/WX    TMP DP  RH WIND       PRES   REMARKS
PHILADELPHIA   PTCLDY    69  47  45 NW13      30.06R
NORTH PHILA    CLEAR     68  48  48 NW8       30.06R
BLUE BELL*     CLEAR     63  46  55 CALM      30.07R
DOYLESTOWN     CLEAR     63  48  58 NW6       30.04R
QUAKERTOWN*    CLEAR     63  48  59 NW7       30.06R
PERKASIE*      FAIR      61  48  63 NW8       30.07R
POTTSTOWN      CLEAR     62  47  57 W6        30.07R
LANCASTER      CLEAR     60  51  72 W8        30.08R
COATESVILLE    CLEAR     63  48  59 NW8       30.09R
READING        CLEAR     63  50  62 NW7       30.06R
ALLENTOWN      CLEAR     62  47  57 W3        30.05R
MOUNT POCONO   CLEAR     52  47  83 NW9       30.05R
HAZLETON         N/A     54  46  76 W3        30.11R
LEHIGHTON      FAIR      55  50  82 CALM      30.06S
WILKES BARRE   CLOUDY    60  50  69 SW5       30.05R

$$
DEZALL-MDZ008-012-015-019-020-280500-
DELAWARE AND EASTERN MARYLAND

CITY           SKY/WX    TMP DP  RH WIND       PRES   REMARKS
WILMINGTON     CLEAR     65  49  56 NW10      30.07R
DOVER          MOCLDY    69  55  61 NW9       30.06R
GEORGETOWN     MOCLDY    68  54  60 NW5       30.07R
EASTON         PTCLDY    69  51  53 N5        30.11R
ABERDEEN       CLEAR     64  47  54 CALM      30.08R
PATUXENT       PTCLDY    72  49  44 N12       30.08R
OCEAN CITY     CLEAR     62  55  77 W6        30.04R
WALLOPS ISLAND PTCLDY    62  61  96 W3        30.06R
CAMBRIDGE      MOCLDY    64  61  88 NW3       30.07R
SALISBURY      CLEAR     61  58  90 CALM      30.05R

$$
PAZ001-021-NYZ056-072-MDZ011-DCZ001-280500-
OTHER NEARBY LOCATIONS

CITY           SKY/WX    TMP DP  RH WIND       PRES   REMARKS
HARRISBURG     PTCLDY    64  51  62 W9        30.07S
STATE COLLEGE  CLEAR     57  47  71 W6        30.11R
WILLIAMSPORT   CLEAR     56  53  90 CALM      30.07R
BINGHAMTON     CLEAR     51  50  96 W6        30.05R
NEW YORK CITY  CLEAR     66  51  58 NW3       30.04R
BALTIMORE      PTCLDY    63  49  60 CALM      30.08R
WASHINGTON DC  PTCLDY    69  47  45 NW8       30.10R

$$



USA.gov is the U.S. government's official web portal to all federal, state and local government web resources and services.